EZY642P EGKK-EGPH

Flight info

Callsign EZY642P
Flight time 1h 2m
Altitude 30000
Route LAM6M LAM L10 BPK UN601 RIBEL DCT INPIP INPIP1E
Aircraft A20N/M-SDE2E3FGHIRWXY/LB1

Departure

Time 2026-04-15 20:33
Airport London Gatwick Airport (EGKK)

Arrival

Time 2026-04-15 21:36
Airport Edinburgh Airport (EGPH)
Time Latitude Longitude Altitude Speed Heading
2026-04-15 19:26 51.16026 -0.18005 204 ft 0 kts 78°
2026-04-15 20:12 51.16025 -0.18016 204 ft 1 kts 78°
2026-04-15 20:12 51.16023 -0.18029 216 ft 1 kts 78°
2026-04-15 20:12 51.16021 -0.18042 215 ft 2 kts 78°
2026-04-15 20:12 51.16019 -0.18055 215 ft 1 kts 78°
2026-04-15 20:13 51.16018 -0.18068 213 ft 1 kts 78°
2026-04-15 20:13 51.16016 -0.18081 208 ft 1 kts 78°
2026-04-15 20:13 51.16014 -0.18094 206 ft 1 kts 88°
2026-04-15 20:13 51.16014 -0.18107 207 ft 1 kts 103°
2026-04-15 20:14 51.16016 -0.18119 204 ft 1 kts 110°
2026-04-15 20:14 51.16019 -0.18131 204 ft 1 kts 118°
2026-04-15 20:14 51.16023 -0.18142 213 ft 1 kts 141°
2026-04-15 20:14 51.16030 -0.18149 210 ft 1 kts 167°
2026-04-15 20:15 51.16036 -0.18151 208 ft 0 kts 167°
2026-04-15 20:22 51.16021 -0.18145 204 ft 7 kts 167°
2026-04-15 20:22 51.15949 -0.18119 207 ft 13 kts 167°
2026-04-15 20:23 51.15853 -0.18086 209 ft 15 kts 168°
2026-04-15 20:23 51.15806 -0.18071 204 ft 0 kts 169°
2026-04-15 20:23 51.15792 -0.18066 214 ft 5 kts 169°
2026-04-15 20:24 51.15747 -0.18052 204 ft 8 kts 169°
2026-04-15 20:24 51.15708 -0.17897 210 ft 11 kts 77°
2026-04-15 20:24 51.15727 -0.17765 204 ft 13 kts 78°
2026-04-15 20:25 51.15746 -0.17623 206 ft 13 kts 77°
2026-04-15 20:25 51.15749 -0.17603 215 ft 2 kts 77°
2026-04-15 20:25 51.15753 -0.17557 208 ft 6 kts 92°
2026-04-15 20:25 51.15721 -0.17505 206 ft 8 kts 160°
2026-04-15 20:26 51.15658 -0.17481 210 ft 10 kts 168°
2026-04-15 20:26 51.15580 -0.17455 209 ft 13 kts 168°
2026-04-15 20:26 51.15497 -0.17427 211 ft 13 kts 166°
2026-04-15 20:26 51.15419 -0.17397 208 ft 0 kts 167°
2026-04-15 20:27 51.15407 -0.17393 204 ft 4 kts 167°
2026-04-15 20:27 51.15366 -0.17379 213 ft 8 kts 169°
2026-04-15 20:27 51.15304 -0.17360 204 ft 10 kts 169°
2026-04-15 20:27 51.15242 -0.17318 210 ft 9 kts 149°
2026-04-15 20:28 51.15190 -0.17248 208 ft 10 kts 120°
2026-04-15 20:28 51.15191 -0.17131 209 ft 12 kts 77°
2026-04-15 20:28 51.15211 -0.16992 205 ft 13 kts 77°
2026-04-15 20:28 51.15218 -0.16942 214 ft 0 kts 77°
2026-04-15 20:29 51.15220 -0.16930 210 ft 4 kts 77°
2026-04-15 20:29 51.15221 -0.16918 210 ft 0 kts 77°
2026-04-15 20:31 51.15221 -0.16917 210 ft 1 kts 77°
2026-04-15 20:31 51.15227 -0.16862 210 ft 8 kts 94°
2026-04-15 20:31 51.15182 -0.16804 206 ft 10 kts 158°
2026-04-15 20:32 51.15125 -0.16842 205 ft 10 kts 233°
2026-04-15 20:32 51.15101 -0.16949 208 ft 11 kts 253°
2026-04-15 20:32 51.15088 -0.17039 215 ft 11 kts 258°
2026-04-15 20:32 51.15023 -0.17505 213 ft 76 kts 258°
2026-04-15 20:33 51.14870 -0.18608 210 ft 129 kts 258°
2026-04-15 20:33 51.14643 -0.20132 635 ft 132 kts 256°
2026-04-15 20:33 51.14534 -0.21459 1436 ft 115 kts 260°
2026-04-15 20:33 51.14388 -0.22759 1900 ft 125 kts 253°
2026-04-15 20:34 51.14156 -0.24166 2282 ft 141 kts 253°
2026-04-15 20:34 51.13891 -0.25753 2710 ft 156 kts 254°
2026-04-15 20:34 51.13821 -0.29472 3587 ft 208 kts 291°
2026-04-15 20:35 51.14885 -0.31213 4326 ft 233 kts 326°
2026-04-15 20:35 51.16477 -0.31813 5323 ft 249 kts 356°
2026-04-15 20:35 51.18180 -0.31049 6257 ft 263 kts 28°
2026-04-15 20:35 51.19507 -0.29005 7147 ft 270 kts 59°
2026-04-15 20:36 51.20160 -0.26206 7975 ft 274 kts 81°
2026-04-15 20:36 51.20447 -0.23181 8884 ft 277 kts 86°
2026-04-15 20:36 51.20678 -0.20132 9778 ft 282 kts 85°
2026-04-15 20:36 51.20973 -0.16919 10294 ft 303 kts 83°
2026-04-15 20:37 51.21269 -0.14255 10602 ft 321 kts 81°
2026-04-15 20:37 51.21713 -0.10622 10953 ft 345 kts 80°
2026-04-15 20:37 51.22198 -0.06805 11289 ft 366 kts 80°
2026-04-15 20:37 51.22712 -0.02788 11952 ft 375 kts 80°
2026-04-15 20:38 51.23238 0.01341 12780 ft 380 kts 80°
2026-04-15 20:38 51.23767 0.05526 13596 ft 385 kts 81°
2026-04-15 20:38 51.24289 0.09689 14350 ft 390 kts 81°
2026-04-15 20:38 51.24820 0.13955 15112 ft 393 kts 81°
2026-04-15 20:39 51.25354 0.18263 15832 ft 398 kts 81°
2026-04-15 20:39 51.25894 0.22640 16567 ft 401 kts 81°
2026-04-15 20:39 51.26049 0.23891 16768 ft 403 kts 81°
2026-04-15 20:39 51.26072 0.24085 16804 ft 403 kts 81°
2026-04-15 20:40 51.26108 0.24377 16472 ft 403 kts 81°
2026-04-15 20:40 51.26626 0.28589 17139 ft 407 kts 81°
2026-04-15 20:40 51.27165 0.32979 17801 ft 411 kts 81°
2026-04-15 20:40 51.28012 0.37394 18413 ft 417 kts 65°
2026-04-15 20:41 51.29607 0.41287 19002 ft 420 kts 46°
2026-04-15 20:41 51.31815 0.44299 19653 ft 418 kts 28°
2026-04-15 20:41 51.34425 0.46192 20301 ft 414 kts 11°
2026-04-15 20:41 51.37249 0.46843 20961 ft 406 kts 354°
2026-04-15 20:42 51.39977 0.46223 21609 ft 397 kts 337°
2026-04-15 20:42 51.42480 0.44400 22448 ft 388 kts 321°
2026-04-15 20:42 51.44598 0.41770 23047 ft 386 kts 314°
2026-04-15 20:42 51.46662 0.39024 23660 ft 389 kts 314°
2026-04-15 20:43 51.48768 0.36214 24211 ft 390 kts 314°
2026-04-15 20:43 51.50865 0.33425 24760 ft 392 kts 314°
2026-04-15 20:43 51.52946 0.30661 25290 ft 393 kts 314°
2026-04-15 20:43 51.55055 0.27863 25805 ft 395 kts 314°
2026-04-15 20:44 51.57175 0.25051 26323 ft 396 kts 314°
2026-04-15 20:44 51.59310 0.22215 26822 ft 397 kts 314°
2026-04-15 20:44 51.61429 0.19398 27290 ft 399 kts 314°
2026-04-15 20:44 51.63390 0.16564 27750 ft 396 kts 308°
2026-04-15 20:45 51.64336 0.14955 27986 ft 395 kts 304°
2026-04-15 20:45 51.65806 0.12053 28336 ft 392 kts 301°
2026-04-15 20:45 51.67326 0.08400 28770 ft 391 kts 297°
2026-04-15 20:45 51.68790 0.04730 29198 ft 393 kts 298°
2026-04-15 20:46 51.70285 0.01021 29563 ft 394 kts 298°
2026-04-15 20:46 51.71727 -0.02558 29845 ft 396 kts 297°
2026-04-15 20:46 51.73268 -0.06272 29944 ft 398 kts 301°
2026-04-15 20:47 51.77174 -0.12565 29976 ft 411 kts 316°
2026-04-15 20:47 51.82130 -0.17452 29982 ft 418 kts 322°
2026-04-15 20:48 51.87110 -0.22205 30039 ft 418 kts 322°
2026-04-15 20:48 51.92117 -0.27004 30051 ft 418 kts 322°
2026-04-15 20:49 51.97132 -0.31814 30047 ft 418 kts 321°
2026-04-15 20:49 52.02093 -0.36584 30051 ft 418 kts 321°
2026-04-15 20:50 52.06808 -0.41128 30044 ft 418 kts 321°
2026-04-15 20:50 52.10855 -0.45017 30030 ft 419 kts 330°
2026-04-15 20:51 52.16162 -0.49212 30028 ft 424 kts 330°
2026-04-15 20:51 52.21299 -0.53918 30009 ft 421 kts 327°
2026-04-15 20:52 52.26277 -0.58866 30011 ft 420 kts 325°
2026-04-15 20:52 52.31257 -0.63894 30000 ft 420 kts 324°
2026-04-15 20:53 52.36243 -0.68920 30001 ft 420 kts 324°
2026-04-15 20:53 52.41212 -0.73908 29993 ft 421 kts 324°
2026-04-15 20:54 52.46225 -0.78931 29994 ft 421 kts 323°
2026-04-15 20:54 52.51198 -0.83927 29987 ft 421 kts 323°
2026-04-15 20:55 52.56013 -0.88749 29985 ft 421 kts 323°
2026-04-15 20:55 52.60979 -0.93734 29976 ft 421 kts 322°
2026-04-15 20:56 52.65997 -0.98791 29978 ft 421 kts 322°
2026-04-15 20:56 52.70977 -1.03809 29975 ft 422 kts 322°
2026-04-15 20:57 52.76008 -1.08880 29960 ft 422 kts 321°
2026-04-15 20:57 52.81024 -1.13939 29995 ft 423 kts 321°
2026-04-15 20:58 52.83191 -1.16122 29995 ft 424 kts 322°
2026-04-15 20:58 52.88502 -1.21481 29999 ft 425 kts 321°
2026-04-15 20:59 52.93508 -1.26568 29993 ft 425 kts 321°
2026-04-15 20:59 52.98562 -1.31709 29987 ft 426 kts 321°
2026-04-15 21:00 53.03632 -1.36871 29975 ft 427 kts 321°
2026-04-15 21:00 53.08684 -1.42024 29967 ft 427 kts 321°
2026-04-15 21:01 53.13744 -1.47198 29954 ft 428 kts 321°
2026-04-15 21:01 53.18833 -1.52417 29922 ft 429 kts 321°
2026-04-15 21:02 53.23826 -1.57536 29937 ft 425 kts 320°
2026-04-15 21:02 53.26062 -1.59849 29933 ft 431 kts 321°
2026-04-15 21:03 53.31136 -1.65088 29930 ft 428 kts 321°
2026-04-15 21:03 53.36223 -1.70356 29927 ft 431 kts 321°
2026-04-15 21:04 53.41324 -1.75652 29929 ft 431 kts 321°
2026-04-15 21:04 53.46415 -1.80953 29928 ft 432 kts 321°
2026-04-15 21:05 53.50664 -1.85383 29926 ft 433 kts 321°
2026-04-15 21:05 53.55808 -1.90756 29916 ft 434 kts 321°
2026-04-15 21:06 53.60920 -1.96110 29907 ft 435 kts 321°
2026-04-15 21:06 53.66073 -2.01532 29904 ft 436 kts 321°
2026-04-15 21:07 53.71211 -2.06955 29901 ft 437 kts 320°
2026-04-15 21:07 53.75365 -2.10956 29907 ft 446 kts 328°
2026-04-15 21:08 53.81174 -2.14913 29888 ft 449 kts 330°
2026-04-15 21:08 53.86944 -2.18862 29892 ft 450 kts 331°
2026-04-15 21:09 53.92758 -2.22854 29891 ft 450 kts 331°
2026-04-15 21:09 53.98560 -2.26849 29892 ft 452 kts 331°
2026-04-15 21:10 54.04271 -2.30789 29882 ft 452 kts 331°
2026-04-15 21:10 54.10092 -2.34817 29887 ft 454 kts 331°
2026-04-15 21:11 54.15940 -2.38871 29868 ft 455 kts 332°
2026-04-15 21:11 54.21824 -2.42965 29855 ft 457 kts 332°
2026-04-15 21:11 54.24762 -2.45012 29628 ft 457 kts 332°
2026-04-15 21:12 54.27711 -2.47068 29350 ft 454 kts 332°
2026-04-15 21:12 54.30612 -2.49094 29068 ft 453 kts 332°
2026-04-15 21:12 54.33289 -2.50967 28815 ft 451 kts 332°
2026-04-15 21:12 54.36210 -2.53015 28539 ft 449 kts 332°
2026-04-15 21:13 54.39104 -2.55046 28262 ft 448 kts 332°
2026-04-15 21:13 54.42005 -2.57086 27977 ft 446 kts 332°
2026-04-15 21:13 54.44845 -2.59086 27720 ft 445 kts 332°
2026-04-15 21:13 54.47715 -2.61110 27456 ft 444 kts 332°
2026-04-15 21:14 54.50572 -2.63129 27194 ft 442 kts 332°
2026-04-15 21:14 54.53398 -2.65129 26927 ft 440 kts 332°
2026-04-15 21:14 54.56195 -2.67112 26675 ft 439 kts 332°
2026-04-15 21:14 54.59040 -2.69131 26413 ft 438 kts 332°
2026-04-15 21:15 54.61856 -2.71133 26154 ft 436 kts 332°
2026-04-15 21:15 54.64659 -2.73129 25903 ft 435 kts 332°
2026-04-15 21:15 54.67421 -2.75098 25652 ft 433 kts 332°
2026-04-15 21:15 54.70242 -2.77111 25399 ft 432 kts 332°
2026-04-15 21:16 54.72972 -2.79064 25159 ft 430 kts 332°
2026-04-15 21:16 54.75745 -2.81052 24918 ft 429 kts 332°
2026-04-15 21:16 54.78504 -2.83034 24667 ft 428 kts 332°
2026-04-15 21:16 54.81244 -2.85004 24419 ft 426 kts 332°
2026-04-15 21:17 54.83983 -2.86975 24187 ft 425 kts 332°
2026-04-15 21:17 54.86684 -2.88920 23948 ft 423 kts 332°
2026-04-15 21:17 54.88767 -2.90491 23747 ft 419 kts 322°
2026-04-15 21:17 54.91254 -2.92772 23500 ft 419 kts 321°
2026-04-15 21:18 54.93846 -2.95059 23253 ft 418 kts 323°
2026-04-15 21:18 54.96493 -2.97172 22996 ft 417 kts 326°
2026-04-15 21:18 54.99136 -2.99130 22512 ft 417 kts 328°
2026-04-15 21:18 55.01812 -3.01019 21984 ft 413 kts 329°
2026-04-15 21:19 55.04495 -3.02873 21457 ft 406 kts 329°
2026-04-15 21:19 55.07074 -3.04646 20952 ft 399 kts 329°
2026-04-15 21:19 55.09514 -3.06331 20481 ft 393 kts 330°
2026-04-15 21:19 55.11758 -3.07914 20094 ft 386 kts 330°
2026-04-15 21:20 55.14227 -3.09633 19992 ft 392 kts 330°
2026-04-15 21:20 55.16800 -3.11464 19943 ft 404 kts 330°
2026-04-15 21:20 55.19417 -3.13333 19859 ft 396 kts 331°
2026-04-15 21:20 55.21886 -3.15082 19696 ft 381 kts 331°
2026-04-15 21:21 55.24290 -3.16774 19541 ft 363 kts 331°
2026-04-15 21:21 55.26569 -3.18380 19267 ft 347 kts 331°
2026-04-15 21:21 55.28820 -3.19819 18640 ft 347 kts 340°
2026-04-15 21:21 55.31220 -3.20400 18033 ft 349 kts 355°
2026-04-15 21:22 55.33647 -3.20092 17428 ft 348 kts
2026-04-15 21:22 55.36062 -3.19670 16839 ft 345 kts
2026-04-15 21:22 55.38407 -3.19288 16279 ft 342 kts
2026-04-15 21:22 55.40706 -3.18928 15723 ft 340 kts
2026-04-15 21:23 55.41479 -3.18804 15540 ft 339 kts
2026-04-15 21:23 55.41919 -3.18734 15450 ft 338 kts
2026-04-15 21:23 55.44383 -3.18339 14872 ft 336 kts
2026-04-15 21:23 55.46682 -3.17957 14362 ft 333 kts
2026-04-15 21:24 55.48993 -3.17572 13843 ft 330 kts
2026-04-15 21:24 55.51292 -3.17195 13288 ft 329 kts
2026-04-15 21:24 55.53539 -3.16828 12750 ft 325 kts
2026-04-15 21:24 55.55786 -3.16462 12199 ft 323 kts
2026-04-15 21:25 55.58026 -3.16099 11662 ft 320 kts
2026-04-15 21:25 55.60217 -3.15752 11167 ft 318 kts
2026-04-15 21:25 55.62416 -3.15413 10681 ft 316 kts
2026-04-15 21:25 55.64579 -3.15070 10299 ft 313 kts
2026-04-15 21:26 55.66653 -3.14739 9948 ft 311 kts
2026-04-15 21:26 55.68318 -3.14479 9656 ft 311 kts
2026-04-15 21:26 55.70458 -3.14029 9228 ft 311 kts 10°
2026-04-15 21:26 55.72454 -3.12541 8842 ft 310 kts 31°
2026-04-15 21:27 55.74270 -3.10568 8398 ft 310 kts 32°
2026-04-15 21:27 55.75989 -3.08285 7987 ft 307 kts 41°
2026-04-15 21:27 55.77632 -3.05862 7574 ft 305 kts 39°
2026-04-15 21:27 55.79297 -3.03484 7148 ft 305 kts 39°
2026-04-15 21:28 55.80948 -3.01121 6749 ft 304 kts 39°
2026-04-15 21:28 55.82590 -2.98764 6366 ft 303 kts 39°
2026-04-15 21:28 55.84210 -2.96434 5982 ft 302 kts 39°
2026-04-15 21:28 55.85859 -2.94130 5583 ft 300 kts 32°
2026-04-15 21:29 55.87748 -2.92803 5175 ft 295 kts
2026-04-15 21:29 55.89759 -2.93006 4717 ft 287 kts 337°
2026-04-15 21:29 55.91472 -2.94698 4373 ft 270 kts 312°
2026-04-15 21:29 55.92867 -2.96922 4004 ft 268 kts 311°
2026-04-15 21:30 55.94245 -2.99088 3659 ft 266 kts 311°
2026-04-15 21:30 55.95623 -3.01226 3333 ft 264 kts 312°
2026-04-15 21:30 55.97018 -3.03375 3150 ft 260 kts 312°
2026-04-15 21:30 55.98413 -3.05529 3060 ft 265 kts 312°
2026-04-15 21:31 56.00558 -3.08814 3002 ft 245 kts 312°
2026-04-15 21:31 56.01063 -3.09586 2998 ft 240 kts 311°
2026-04-15 21:32 56.02783 -3.13952 2981 ft 205 kts 261°
2026-04-15 21:32 56.02348 -3.16183 2765 ft 191 kts 232°
2026-04-15 21:32 56.01593 -3.18056 2494 ft 189 kts 231°
2026-04-15 21:32 56.00866 -3.19985 2230 ft 186 kts 233°
2026-04-15 21:33 56.00192 -3.21946 1979 ft 182 kts 234°
2026-04-15 21:33 55.99565 -3.23791 1738 ft 168 kts 233°
2026-04-15 21:33 55.98995 -3.25482 1516 ft 150 kts 233°
2026-04-15 21:33 55.98482 -3.26992 1322 ft 135 kts 232°
2026-04-15 21:34 55.98022 -3.28347 1128 ft 123 kts 233°
2026-04-15 21:34 55.97548 -3.29734 963 ft 126 kts 234°
2026-04-15 21:34 55.97120 -3.31008 798 ft 117 kts 234°
2026-04-15 21:34 55.96683 -3.32283 634 ft 121 kts 234°
2026-04-15 21:35 55.96265 -3.33526 468 ft 115 kts 233°
2026-04-15 21:35 55.95833 -3.34790 316 ft 125 kts 235°
2026-04-15 21:35 55.95387 -3.36109 157 ft 122 kts 234°
2026-04-15 21:35 55.94979 -3.37285 112 ft 91 kts 239°
2026-04-15 21:36 55.94760 -3.37950 116 ft 34 kts 239°
2026-04-15 21:36 55.94724 -3.38058 113 ft 0 kts 239°